DLH4L EDDM-EBBR

Flight info

Callsign DLH4L
Flight time 0h 58m
Altitude 32000
Route GIVMI6Q GIVMI Y101 INBED DCT REKDI DCT OSBIT DCT TEKTU DCT TESGA DCT UMUPU T880 BATTY
Aircraft A320/M-SDE3FGHIRWY/LB1

Departure

Time 2026-04-30 19:38
Airport Munich Airport (EDDM)

Arrival

Time 2026-04-30 20:37
Airport Brussels Airport (EBBR)
Time Latitude Longitude Altitude Speed Heading
2026-04-30 19:10 48.35407 11.79756 1478 ft 0 kts 83°
2026-04-30 19:27 48.35405 11.79727 1471 ft 4 kts 82°
2026-04-30 19:27 48.35394 11.79648 1481 ft 4 kts 69°
2026-04-30 19:28 48.35381 11.79614 1471 ft 4 kts 36°
2026-04-30 19:28 48.35369 11.79605 1479 ft 0 kts 353°
2026-04-30 19:31 48.35383 11.79603 1471 ft 10 kts 353°
2026-04-30 19:31 48.35451 11.79590 1485 ft 18 kts 353°
2026-04-30 19:31 48.35744 11.79540 1475 ft 24 kts 353°
2026-04-30 19:32 48.35872 11.79514 1483 ft 16 kts 342°
2026-04-30 19:32 48.35901 11.79391 1485 ft 14 kts 275°
2026-04-30 19:32 48.35979 11.79338 1482 ft 9 kts 353°
2026-04-30 19:32 48.36031 11.79327 1475 ft 0 kts 353°
2026-04-30 19:33 48.36071 11.79313 1473 ft 13 kts 335°
2026-04-30 19:33 48.36082 11.79167 1484 ft 17 kts 263°
2026-04-30 19:33 48.36064 11.78923 1475 ft 30 kts 263°
2026-04-30 19:34 48.36040 11.78615 1485 ft 30 kts 263°
2026-04-30 19:34 48.36017 11.78325 1479 ft 26 kts 263°
2026-04-30 19:34 48.35990 11.77984 1473 ft 0 kts 263°
2026-04-30 19:35 48.35989 11.77969 1473 ft 3 kts 263°
2026-04-30 19:36 48.35985 11.77914 1478 ft 10 kts 263°
2026-04-30 19:36 48.35970 11.77727 1485 ft 23 kts 263°
2026-04-30 19:36 48.35925 11.77130 1481 ft 24 kts 266°
2026-04-30 19:37 48.35984 11.76990 1485 ft 17 kts 321°
2026-04-30 19:37 48.36107 11.76956 1480 ft 20 kts 353°
2026-04-30 19:37 48.36254 11.76933 1479 ft 22 kts
2026-04-30 19:37 48.36299 11.77060 1485 ft 19 kts 83°
2026-04-30 19:38 48.36340 11.77595 1481 ft 93 kts 83°
2026-04-30 19:38 48.36441 11.78951 1503 ft 163 kts 83°
2026-04-30 19:38 48.36584 11.80722 2270 ft 172 kts 83°
2026-04-30 19:38 48.36722 11.82516 3224 ft 175 kts 84°
2026-04-30 19:39 48.36872 11.84425 3611 ft 195 kts 82°
2026-04-30 19:39 48.37499 11.86347 3915 ft 225 kts 46°
2026-04-30 19:39 48.38989 11.87361 4416 ft 255 kts 14°
2026-04-30 19:39 48.40798 11.87409 5234 ft 269 kts 352°
2026-04-30 19:40 48.42475 11.86060 6060 ft 284 kts 316°
2026-04-30 19:40 48.43735 11.83748 6994 ft 286 kts 309°
2026-04-30 19:40 48.44955 11.81381 7867 ft 287 kts 310°
2026-04-30 19:40 48.46204 11.79007 8715 ft 290 kts 311°
2026-04-30 19:41 48.47485 11.76642 9553 ft 293 kts 312°
2026-04-30 19:41 48.48801 11.74269 10357 ft 296 kts 313°
2026-04-30 19:41 48.50145 11.71882 11076 ft 301 kts 314°
2026-04-30 19:41 48.51516 11.69472 11820 ft 304 kts 315°
2026-04-30 19:42 48.52897 11.67049 12563 ft 307 kts 315°
2026-04-30 19:42 48.54300 11.64583 13307 ft 310 kts 315°
2026-04-30 19:42 48.55710 11.62097 14042 ft 314 kts 315°
2026-04-30 19:42 48.57134 11.59580 14712 ft 317 kts 315°
2026-04-30 19:43 48.58604 11.56991 14959 ft 336 kts 315°
2026-04-30 19:43 48.60172 11.54228 15094 ft 357 kts 315°
2026-04-30 19:43 48.61809 11.51330 15495 ft 367 kts 315°
2026-04-30 19:44 48.65145 11.45375 16700 ft 374 kts 315°
2026-04-30 19:44 48.66832 11.42353 17333 ft 377 kts 315°
2026-04-30 19:44 48.68530 11.39315 17952 ft 380 kts 315°
2026-04-30 19:44 48.70353 11.36436 18529 ft 378 kts 324°
2026-04-30 19:45 48.72461 11.34089 19065 ft 376 kts 332°
2026-04-30 19:45 48.74647 11.31896 19613 ft 378 kts 332°
2026-04-30 19:45 48.76847 11.29685 20165 ft 381 kts 332°
2026-04-30 19:45 48.79064 11.27449 20721 ft 383 kts 332°
2026-04-30 19:46 48.81285 11.25197 21269 ft 386 kts 332°
2026-04-30 19:46 48.83568 11.22871 21847 ft 388 kts 332°
2026-04-30 19:46 48.85756 11.20590 22374 ft 391 kts 330°
2026-04-30 19:46 48.87968 11.18148 22904 ft 394 kts 329°
2026-04-30 19:47 48.90167 11.15628 23424 ft 397 kts 328°
2026-04-30 19:47 48.91618 11.13942 23760 ft 399 kts 328°
2026-04-30 19:47 48.94580 11.10493 24343 ft 402 kts 328°
2026-04-30 19:47 48.96811 11.07904 24750 ft 404 kts 328°
2026-04-30 19:48 48.99061 11.05310 25130 ft 407 kts 329°
2026-04-30 19:48 49.01328 11.02710 25438 ft 410 kts 329°
2026-04-30 19:48 49.03596 11.00121 25785 ft 413 kts 329°
2026-04-30 19:48 49.05929 10.97458 26158 ft 416 kts 329°
2026-04-30 19:49 49.08250 10.94799 26517 ft 418 kts 329°
2026-04-30 19:49 49.12909 10.89426 27232 ft 422 kts 329°
2026-04-30 19:49 49.15227 10.86749 27573 ft 424 kts 329°
2026-04-30 19:50 49.17587 10.84028 27925 ft 426 kts 329°
2026-04-30 19:50 49.19967 10.81283 28268 ft 428 kts 329°
2026-04-30 19:50 49.22349 10.78532 28573 ft 430 kts 329°
2026-04-30 19:50 49.24744 10.75760 28889 ft 433 kts 329°
2026-04-30 19:51 49.27146 10.72976 29180 ft 435 kts 329°
2026-04-30 19:51 49.29567 10.70166 29418 ft 438 kts 329°
2026-04-30 19:51 49.32005 10.67334 29671 ft 441 kts 329°
2026-04-30 19:51 49.34448 10.64489 29946 ft 443 kts 329°
2026-04-30 19:52 49.36907 10.61620 30223 ft 445 kts 329°
2026-04-30 19:52 49.39376 10.58737 30490 ft 446 kts 329°
2026-04-30 19:52 49.41849 10.55847 30726 ft 448 kts 329°
2026-04-30 19:52 49.44331 10.52943 30946 ft 449 kts 328°
2026-04-30 19:53 49.46824 10.50020 31175 ft 450 kts 328°
2026-04-30 19:53 49.49310 10.47101 31386 ft 451 kts 328°
2026-04-30 19:53 49.51799 10.44172 31689 ft 449 kts 328°
2026-04-30 19:53 49.54275 10.41251 32015 ft 447 kts 328°
2026-04-30 19:54 49.56742 10.38338 32334 ft 446 kts 328°
2026-04-30 19:54 49.59205 10.35435 32601 ft 445 kts 328°
2026-04-30 19:54 49.61659 10.32541 32872 ft 445 kts 327°
2026-04-30 19:54 49.64117 10.29634 33159 ft 444 kts 327°
2026-04-30 19:55 49.66566 10.26735 33468 ft 443 kts 327°
2026-04-30 19:55 49.69007 10.23845 33784 ft 442 kts 327°
2026-04-30 19:55 49.71412 10.20995 34093 ft 440 kts 327°
2026-04-30 19:55 49.73842 10.18111 34331 ft 440 kts 327°
2026-04-30 19:56 49.78643 10.12391 34387 ft 432 kts 327°
2026-04-30 19:56 49.83398 10.06713 34390 ft 431 kts 327°
2026-04-30 19:57 49.88143 10.01024 34358 ft 431 kts 327°
2026-04-30 19:57 49.92903 9.95326 34387 ft 432 kts 327°
2026-04-30 19:58 49.97668 9.89613 34386 ft 432 kts 327°
2026-04-30 19:58 50.02415 9.83881 34382 ft 432 kts 326°
2026-04-30 19:59 50.07096 9.77571 34380 ft 438 kts 315°
2026-04-30 20:00 50.12247 9.65993 34374 ft 443 kts 308°
2026-04-30 20:00 50.15646 9.57982 34356 ft 443 kts 307°
2026-04-30 20:01 50.20735 9.45945 34366 ft 443 kts 307°
2026-04-30 20:01 50.24136 9.37904 34372 ft 443 kts 307°
2026-04-30 20:02 50.29198 9.25832 34376 ft 443 kts 307°
2026-04-30 20:03 50.34091 9.13568 34367 ft 447 kts 298°
2026-04-30 20:03 50.36149 9.04325 34372 ft 451 kts 290°
2026-04-30 20:04 50.38007 8.94925 34380 ft 451 kts 290°
2026-04-30 20:05 50.40781 8.80838 34373 ft 451 kts 290°
2026-04-30 20:05 50.43549 8.66734 34379 ft 451 kts 290°
2026-04-30 20:06 50.44978 8.57119 34375 ft 454 kts 282°
2026-04-30 20:06 50.45949 8.47338 34368 ft 454 kts 281°
2026-04-30 20:07 50.46922 8.37543 34369 ft 454 kts 282°
2026-04-30 20:08 50.48376 8.22851 34358 ft 454 kts 281°
2026-04-30 20:08 50.49330 8.13042 34357 ft 454 kts 281°
2026-04-30 20:09 50.50271 8.03291 34360 ft 454 kts 281°
2026-04-30 20:09 50.51671 7.88512 34350 ft 454 kts 280°
2026-04-30 20:10 50.53046 7.73836 34350 ft 454 kts 280°
2026-04-30 20:11 50.54410 7.59092 34345 ft 455 kts 280°
2026-04-30 20:11 50.55307 7.49248 34347 ft 455 kts 280°
2026-04-30 20:12 50.55945 7.34370 34339 ft 456 kts 272°
2026-04-30 20:13 50.56016 7.24413 34337 ft 456 kts 271°
2026-04-30 20:13 50.56055 7.14448 34340 ft 456 kts 270°
2026-04-30 20:14 50.55877 7.04479 34342 ft 456 kts 268°
2026-04-30 20:14 50.55591 6.94510 34334 ft 456 kts 268°
2026-04-30 20:15 50.55363 6.86238 34330 ft 456 kts 268°
2026-04-30 20:15 50.55115 6.76284 34333 ft 455 kts 268°
2026-04-30 20:16 50.55283 6.66354 34247 ft 454 kts 280°
2026-04-30 20:16 50.55843 6.61448 33387 ft 457 kts 282°
2026-04-30 20:16 50.56431 6.56573 32830 ft 452 kts 282°
2026-04-30 20:16 50.57027 6.51730 32212 ft 449 kts 282°
2026-04-30 20:17 50.57620 6.46935 31633 ft 446 kts 281°
2026-04-30 20:17 50.58205 6.42165 31055 ft 443 kts 281°
2026-04-30 20:17 50.58778 6.37407 30472 ft 441 kts 281°
2026-04-30 20:17 50.59342 6.32658 29848 ft 439 kts 281°
2026-04-30 20:18 50.59898 6.27960 29300 ft 435 kts 281°
2026-04-30 20:18 50.60450 6.23295 28774 ft 431 kts 281°
2026-04-30 20:18 50.61004 6.18671 28237 ft 428 kts 281°
2026-04-30 20:18 50.61563 6.14082 27707 ft 426 kts 281°
2026-04-30 20:19 50.62119 6.09515 27192 ft 424 kts 281°
2026-04-30 20:19 50.62673 6.04969 26684 ft 421 kts 281°
2026-04-30 20:19 50.63230 6.00459 26179 ft 418 kts 281°
2026-04-30 20:19 50.63786 5.95976 25686 ft 415 kts 281°
2026-04-30 20:20 50.64338 5.91522 25202 ft 413 kts 281°
2026-04-30 20:20 50.64880 5.87151 24732 ft 410 kts 281°
2026-04-30 20:20 50.65425 5.82750 24262 ft 408 kts 281°
2026-04-30 20:20 50.65967 5.78370 23796 ft 406 kts 281°
2026-04-30 20:21 50.66505 5.74014 23244 ft 404 kts 281°
2026-04-30 20:21 50.67039 5.69686 22709 ft 402 kts 281°
2026-04-30 20:21 50.67571 5.65368 22173 ft 400 kts 281°
2026-04-30 20:21 50.68102 5.61066 21666 ft 399 kts 281°
2026-04-30 20:22 50.68636 5.56787 21162 ft 398 kts 281°
2026-04-30 20:22 50.69176 5.52518 20663 ft 396 kts 281°
2026-04-30 20:22 50.69713 5.48270 20172 ft 394 kts 281°
2026-04-30 20:22 50.70250 5.44028 19688 ft 393 kts 281°
2026-04-30 20:23 50.70784 5.39815 19214 ft 391 kts 281°
2026-04-30 20:23 50.71316 5.35613 18742 ft 390 kts 281°
2026-04-30 20:23 50.71846 5.31428 18236 ft 388 kts 281°
2026-04-30 20:23 50.72374 5.27264 17706 ft 387 kts 281°
2026-04-30 20:24 50.72903 5.23109 17184 ft 385 kts 281°
2026-04-30 20:24 50.73431 5.18967 16675 ft 384 kts 281°
2026-04-30 20:24 50.73960 5.14835 16171 ft 383 kts 281°
2026-04-30 20:24 50.74499 5.10707 15492 ft 386 kts 281°
2026-04-30 20:25 50.75335 5.02244 14059 ft 394 kts 273°
2026-04-30 20:25 50.75533 4.97926 13270 ft 396 kts 273°
2026-04-30 20:26 50.75916 4.89218 11774 ft 397 kts 273°
2026-04-30 20:26 50.76281 4.80873 10546 ft 363 kts 273°
2026-04-30 20:26 50.76453 4.76977 9936 ft 349 kts 272°
2026-04-30 20:27 50.76198 4.69640 8796 ft 321 kts 263°
2026-04-30 20:27 50.75819 4.62861 7805 ft 299 kts 263°
2026-04-30 20:28 50.75493 4.56500 6841 ft 283 kts 263°
2026-04-30 20:28 50.75189 4.50263 5921 ft 286 kts 263°
2026-04-30 20:29 50.74899 4.44000 5020 ft 286 kts 262°
2026-04-30 20:30 50.74583 4.35100 3645 ft 259 kts 263°
2026-04-30 20:30 50.75899 4.27362 3025 ft 231 kts 295°
2026-04-30 20:31 50.78684 4.21693 3030 ft 216 kts 341°
2026-04-30 20:32 50.82678 4.22442 3078 ft 188 kts 46°
2026-04-30 20:32 50.84112 4.25599 2994 ft 175 kts 73°
2026-04-30 20:33 50.84622 4.27354 2728 ft 174 kts 73°
2026-04-30 20:33 50.85616 4.30749 2231 ft 170 kts 72°
2026-04-30 20:33 50.86114 4.32429 1982 ft 161 kts 72°
2026-04-30 20:34 50.86977 4.35355 1661 ft 129 kts 74°
2026-04-30 20:34 50.87700 4.37881 1319 ft 132 kts 74°
2026-04-30 20:35 50.88060 4.39294 1127 ft 141 kts 74°
2026-04-30 20:35 50.88450 4.40685 838 ft 138 kts 70°
2026-04-30 20:35 50.89264 4.43413 568 ft 143 kts 68°
2026-04-30 20:36 50.89688 4.44870 319 ft 146 kts 69°
2026-04-30 20:36 50.90094 4.46272 161 ft 135 kts 67°
2026-04-30 20:36 50.90686 4.48319 119 ft 61 kts 65°
2026-04-30 20:37 50.90830 4.48821 120 ft 46 kts 65°
2026-04-30 20:37 50.90942 4.49216 120 ft 28 kts 66°
2026-04-30 20:37 50.90981 4.49509 120 ft 27 kts 89°
2026-04-30 20:37 50.90936 4.49680 122 ft 13 kts 162°
2026-04-30 20:38 50.90878 4.49608 124 ft 12 kts 249°
2026-04-30 20:38 50.90805 4.49345 119 ft 36 kts 245°
2026-04-30 20:38 50.90716 4.49099 120 ft 10 kts 198°
2026-04-30 20:39 50.90617 4.48970 119 ft 14 kts 245°
2026-04-30 20:39 50.90578 4.48906 121 ft 4 kts 167°
2026-04-30 20:39 50.90529 4.48942 121 ft 9 kts 153°
2026-04-30 20:40 50.90512 4.48954 118 ft 0 kts 155°